Preview of NWS' New Version of Forecast
This preview is not operational and should not be used for support decisions.

Regional Weather Roundup (RWR)

Issued by National Weather Service (NWS)

                            
000
ASPQ40 PGUM 172110
RWRPQ 
WEATHER ROUNDUP FOR THE MARIANAS AND MICRONESIA
NATIONAL WEATHER SERVICE TIYAN GU
700 AM CHST MON FEB 18 2019

GUZ001>004-172200-
MARIANA ISLANDS-
  
CITY           SKY/WX    TMP DP  RH WIND       PRES   REMARKS
GUAM AIRPORT   CLEAR     75  66  73 NE15      30.01R                  
ANDERSEN AFB   PTCLDY    75  64  69 NE18G26   30.01                   
ROTA AIRPORT   PTCLDY    75  64  69 NE14      30.00R                  
TINIAN AP      PTCLDY   N/A N/A N/A E21       30.01R                  
SAIPAN AP      PTCLDY    77  63  61 NE18      30.02R                  

$$

PMZ161-172200-
REPUBLIC OF PALAU-
  
CITY           SKY/WX    TMP DP  RH WIND       PRES   REMARKS
KOROR AP       CLOUDY    75  73  94 NE7G13    29.89R                  
KOROR WSO      NOT AVBL                                               

$$

PMZ171>174-172200-
FEDERATED STATES OF MICRONESIA-
  
CITY           SKY/WX    TMP DP  RH WIND       PRES   REMARKS
YAP AIRPORT    MOCLDY    79  70  73 NE12      29.92R                  
CHUUK AP       CLOUDY    81  75  83 NE14      29.84R                  
POHNPEI AP     NOT AVBL                                               
POHNPEI WSO    CLOUDY    82  75  78 S7        29.85R                  
KOSRAE AP      NOT AVBL                                               

$$

PMZ181-172200-
REPUBLIC OF THE MARSHALL ISLANDS-
  
CITY           SKY/WX    TMP DP  RH WIND       PRES   REMARKS
KWAJALEIN AP   PTSUNNY   82  77  83 E24       29.81R HX  91           
MAJURO AP      PTSUNNY   82  77  83 E25       29.80  HX  91           
MAJURO WSO     PTSUNNY   84  77  79 E13G25    29.79R HX  94           

$$